N5SOR-2 Weather Reports


Display with metric or nautical units.
time (UTC)temp
F
wind
direction
speed
MPH
gust
MPH
rain 1hr
in
rain 24hr
in
rain mn
in
humidity
%
barometer
mb
20201026042926 50 359 1.0 8.0 0.00 0.00 0.00 64 1007.6
20201026041622 54 359 1.0 4.0 0.00 0.00 0.00 55 1007.5
20201026035026 57 106 6.0 13.0 0.00 0.00 0.00 52 1007.7
20201026033720 66 359 2.0 5.0 0.00 0.00 0.00 24 1007.8
20201026031118 68 359 4.0 13.0 0.00 0.00 0.00 23 1007.9
20201026025820 69 359 10.0 19.0 0.00 0.00 0.00 22 1007.8
20201026024520 69 359 12.0 22.0 0.00 0.00 0.00 22 1007.8
20201026023218 69 359 12.0 23.0 0.00 0.00 0.00 22 1007.9
20201026021916 69 359 11.0 19.0 0.00 0.00 0.00 22 1007.9
20201026020621 69 359 12.0 18.0 0.00 0.00 0.00 22 1007.9
20201026015314 69 359 10.0 18.0 0.00 0.00 0.00 21 1007.9
20201026014014 69 359 8.0 17.0 0.00 0.00 0.00 22 1008.0
20201026012714 69 359 8.0 15.0 0.00 0.00 0.00 22 1007.9
20201026011411 69 359 7.0 14.0 0.00 0.00 0.00 21 1007.8
20201026010111 70 359 8.0 18.0 0.00 0.00 0.00 20 1007.6
20201026004812 70 359 7.0 16.0 0.00 0.00 0.00 19 1007.6
20201026003536 70 359 5.0 12.0 0.00 0.00 0.00 18 1007.6
20201026002209 70 359 5.0 11.0 0.00 0.00 0.00 18 1007.7
20201026000918 71 359 3.0 9.0 0.00 0.00 0.00 17 1007.6
20201025235607 72 359 7.0 16.0 0.00 0.00 0.00 17 1007.6
20201025234307 73 359 5.0 12.0 0.00 0.00 0.00 16 1007.7
20201025233022 73 359 7.0 14.0 0.00 0.00 0.00 15 1007.6
20201025230404 73 359 10.0 17.0 0.00 0.00 0.00 17 1007.5
20201025225104 74 359 9.0 16.0 0.00 0.00 0.00 17 1007.6
20201025223803 74 359 11.0 23.0 0.00 0.00 0.00 17 1007.6
20201025222510 75 359 9.0 22.0 0.00 0.00 0.00 16 1007.6
20201025221205 75 359 10.0 19.0 0.00 0.00 0.00 17 1007.5
20201025214559 76 359 7.0 11.0 0.00 0.00 0.00 15 1007.8
20201025213303 76 359 6.0 13.0 0.00 0.00 0.00 16 1008.0
20201025212006 75 359 9.0 16.0 0.00 0.00 0.00 15 1008.0
20201025210658 74 359 11.0 21.0 0.00 0.00 0.00 16 1008.1
20201025205402 74 359 15.0 27.0 0.00 0.00 0.00 16 1008.1
20201025202800 74 359 13.0 24.0 0.00 0.00 0.00 16 1008.2
20201025201455 74 359 15.0 28.0 0.00 0.00 0.00 16 1008.6
20201025193600 73 359 16.0 27.0 0.00 0.00 0.00 16 1009.3
20201025192252 76 359 11.0 23.0 0.00 0.00 0.00 17 1009.8
20201025190950 76 359 12.0 24.0 0.00 0.00 0.00 17 1009.9
20201025185650 76 359 8.0 18.0 0.00 0.00 0.00 16 1010.2
20201025183054 75 359 9.0 17.0 0.00 0.00 0.00 20 1010.8
20201025180448 72 359 14.0 21.0 0.00 0.00 0.00 23 1011.4
20201025175147 71 359 12.0 23.0 0.00 0.00 0.00 24 1011.3
20201025173845 72 359 14.0 23.0 0.00 0.00 0.00 25 1011.7
20201025172552 72 359 11.0 20.0 0.00 0.00 0.00 25 1012.0
20201025171306 70 359 15.0 23.0 0.00 0.00 0.00 27 1012.1
20201025165947 70 359 13.0 22.0 0.00 0.00 0.00 27 1012.3
20201025164645 70 359 14.0 19.0 0.00 0.00 0.00 27 1012.4
20201025163342 69 359 11.0 18.0 0.00 0.00 0.00 29 1012.5
20201025162040 69 359 15.0 21.0 0.00 0.00 0.00 30 1012.4
20201025160742 68 359 12.0 19.0 0.00 0.00 0.00 30 1012.4
20201025155439 67 359 15.0 21.0 0.00 0.00 0.00 33 1012.5
20201025154137 66 359 16.0 23.0 0.00 0.00 0.00 34 1012.6
20201025152841 65 359 16.0 21.0 0.00 0.00 0.00 35 1012.7
20201025151538 64 359 19.0 23.0 0.00 0.00 0.00 36 1012.5
20201025150239 64 359 19.0 25.0 0.00 0.00 0.00 36 1012.6
20201025144935 64 359 19.0 23.0 0.00 0.00 0.00 36 1012.5
20201025143634 64 359 16.0 22.0 0.00 0.00 0.00 36 1012.4
20201025141031 64 359 20.0 24.0 0.00 0.00 0.00 36 1012.3
20201025135734 64 359 20.0 27.0 0.00 0.00 0.00 36 1012.3
20201025134434 63 359 18.0 24.0 0.00 0.00 0.00 36 1012.2
20201025131834 63 359 18.0 25.0 0.00 0.00 0.00 35 1012.2
20201025130527 63 359 14.0 22.0 0.00 0.00 0.00 36 1012.1
20201025125227 62 359 14.0 19.0 0.00 0.00 0.00 36 1012.3
20201025123928 63 359 17.0 23.0 0.00 0.00 0.00 35 1012.0
20201025121327 64 359 21.0 27.0 0.00 0.00 0.00 34 1011.9
20201025120027 64 359 20.0 24.0 0.00 0.00 0.00 35 1011.7
20201025114727 63 359 21.0 28.0 0.00 0.00 0.00 35 1011.6
20201025113426 64 359 21.0 27.0 0.00 0.00 0.00 35 1011.5
20201025112123 64 359 19.0 22.0 0.00 0.00 0.00 34 1011.5
20201025110822 64 359 18.0 25.0 0.00 0.00 0.00 34 1011.4
20201025105524 64 359 20.0 28.0 0.00 0.00 0.00 34 1011.6
20201025104220 64 359 22.0 29.0 0.00 0.00 0.00 34 1011.4
20201025102918 65 359 23.0 32.0 0.00 0.00 0.00 33 1011.4
20201025101623 65 359 22.0 27.0 0.00 0.00 0.00 33 1011.3
20201025100320 65 359 21.0 31.0 0.00 0.00 0.00 34 1011.1
20201025095026 66 359 24.0 31.0 0.00 0.00 0.00 33 1011.1
20201025093715 66 359 26.0 34.0 0.00 0.00 0.00 32 1011.1
20201025092419 66 359 27.0 38.0 0.00 0.00 0.00 33 1011.0
20201025091117 66 359 26.0 36.0 0.00 0.00 0.00 33 1011.2
20201025085815 65 359 18.0 31.0 0.00 0.00 0.00 35 1011.1
20201025084521 65 359 17.0 27.0 0.00 0.00 0.00 35 1011.5
20201025083218 65 359 14.0 26.0 0.00 0.00 0.00 35 1011.6
20201025081911 65 359 13.0 20.0 0.00 0.00 0.00 36 1012.0
20201025080615 65 359 13.0 19.0 0.00 0.00 0.00 36 1012.0
20201025075310 65 359 14.0 23.0 0.00 0.00 0.00 35 1012.0
20201025074012 65 359 13.0 19.0 0.00 0.00 0.00 35 1012.1
20201025072708 65 359 12.0 18.0 0.00 0.00 0.00 35 1012.3
20201025071416 66 359 13.0 20.0 0.00 0.00 0.00 33 1012.3
20201025070111 66 359 14.0 23.0 0.00 0.00 0.00 32 1012.4
20201025064807 67 359 16.0 22.0 0.00 0.00 0.00 32 1012.5
20201025063510 66 359 14.0 20.0 0.00 0.00 0.00 32 1012.5
20201025062207 67 359 14.0 23.0 0.00 0.00 0.00 32 1012.7
20201025060904 66 359 14.0 20.0 0.00 0.00 0.00 32 1012.8
20201025055606 66 359 12.0 18.0 0.00 0.00 0.00 33 1013.1
20201025054302 66 359 11.0 17.0 0.00 0.00 0.00 33 1013.5
20201025053004 66 359 12.0 19.0 0.00 0.00 0.00 32 1013.7
20201025051710 66 359 12.0 17.0 0.00 0.00 0.00 32 1013.9
20201025045100 66 359 10.0 15.0 0.00 0.00 0.00 32 1014.2
20201025043759 66 359 13.0 17.0 0.00 0.00 0.00 32 1014.4